EB1TR-13 Weather Reports


Display with metric or nautical units.
time (UTC)temp
F
wind
direction
speed
MPH
gust
MPH
rain 1hr
in
rain 24hr
in
rain mn
in
humidity
%
barometer
mb
20260506204446 57 102 1.0 1.0 0.00 0.00 0.00 86 1014.0
20260506202946 57 102 1.0 1.0 0.00 0.00 0.00 86 1014.0
20260506201446 57 102 1.0 1.0 0.00 0.00 0.00 86 1014.0
20260506195946 57 102 1.0 1.0 0.00 0.00 0.00 86 1014.0
20260506194446 59 109 1.0 1.0 0.00 0.00 0.00 82 1014.0
20260506192946 59 109 1.0 2.0 0.00 0.00 0.00 80 1014.0
20260506191446 59 31 1.0 1.0 0.00 0.00 0.00 80 1014.0
20260506185946 59 31 2.0 2.0 0.00 0.00 0.00 79 1014.0
20260506184450 60 33 1.0 3.0 0.00 0.00 0.00 79 1014.0
20260506182945 60 346 1.0 2.0 0.00 0.00 0.00 79 1014.0
20260506181446 60 345 2.0 4.0 0.00 0.00 0.00 79 1014.0
20260506175946 60 355 1.0 4.0 0.00 0.00 0.00 79 1014.0
20260506174446 61 355 2.0 6.0 0.00 0.00 0.00 79 1014.0
20260506172946 61 355 3.0 6.0 0.00 0.00 0.00 78 1014.0
20260506171445 62 306 2.0 5.0 0.00 0.00 0.00 77 1014.0
20260506165946 62 294 2.0 6.0 0.00 0.00 0.00 78 1014.0
20260506164446 62 19 2.0 7.0 0.00 0.00 0.00 77 1014.0
20260506162946 63 310 1.0 5.0 0.00 0.00 0.00 74 1014.0
20260506161446 63 313 2.0 4.0 0.00 0.00 0.00 73 1014.0
20260506154446 63 313 4.0 7.0 0.00 0.00 0.00 73 1014.0
20260506152946 63 316 3.0 6.0 0.00 0.00 0.00 73 1014.0
20260506151446 62 292 3.0 6.0 0.00 0.00 0.00 74 1014.0
20260506145946 62 327 3.0 7.0 0.00 0.00 0.00 74 1014.0
20260506144449 62 343 4.0 9.0 0.00 0.00 0.00 75 1014.0
20260506142946 62 282 5.0 8.0 0.00 0.00 0.00 75 1015.0
20260506141446 61 351 4.0 9.0 0.00 0.00 0.00 75 1015.0
20260506135946 62 298 4.0 9.0 0.00 0.00 0.00 75 1014.0
20260506134445 61 286 3.0 7.0 0.00 0.00 0.00 77 1014.0
20260506132946 61 298 3.0 7.0 0.00 0.00 0.00 78 1015.0
20260506131445 61 295 2.0 7.0 0.00 0.00 0.00 77 1015.0
20260506125946 61 333 2.0 4.0 0.00 0.00 0.00 77 1015.0
20260506124446 61 333 3.0 6.0 0.00 0.00 0.00 76 1015.0
20260506122946 61 348 2.0 7.0 0.00 0.00 0.00 75 1015.0
20260506121446 62 258 2.0 6.0 0.00 0.00 0.00 74 1015.0
20260506115946 62 292 4.0 7.0 0.00 0.00 0.00 71 1015.0
20260506114446 62 304 2.0 6.0 0.00 0.00 0.00 72 1015.0
20260506112946 61 311 3.0 7.0 0.00 0.00 0.00 73 1015.0
20260506111446 61 297 2.0 4.0 0.00 0.00 0.00 74 1015.0
20260506105946 61 271 2.0 4.0 0.00 0.00 0.00 73 1015.0
20260506104446 61 271 3.0 7.0 0.00 0.00 0.00 72 1015.0
20260506102946 60 261 3.0 6.0 0.00 0.00 0.00 72 1015.0
20260506101446 60 230 2.0 5.0 0.00 0.00 0.00 73 1015.0
20260506095946 60 297 2.0 4.0 0.00 0.00 0.00 74 1015.0
20260506094446 60 227 2.0 6.0 0.00 0.00 0.00 75 1015.0
20260506092946 60 194 1.0 4.0 0.00 0.00 0.00 76 1015.0
20260506091446 59 211 1.0 3.0 0.00 0.00 0.00 77 1015.0
20260506085946 58 211 2.0 5.0 0.00 0.00 0.00 78 1015.0
20260506084446 57 181 1.0 4.0 0.00 0.00 0.00 80 1015.0
20260506082946 56 186 1.0 4.0 0.00 0.00 0.00 83 1015.0
20260506081446 55 186 2.0 4.0 0.00 0.00 0.00 85 1015.0
20260506072946 54 216 2.0 3.0 0.00 0.00 0.00 84 1015.0
20260506071446 54 218 1.0 3.0 0.00 0.00 0.00 84 1015.0
20260506061446 53 218 1.0 1.0 0.00 0.00 0.00 89 1015.0
20260506044446 52 217 1.0 2.0 0.00 0.00 0.00 92 1015.0
20260506042946 52 217 1.0 2.0 0.00 0.00 0.00 92 1015.0
20260506041446 52 217 1.0 4.0 0.00 0.00 0.00 92 1015.0
20260506035946 52 217 1.0 4.0 0.00 0.00 0.00 92 1015.0
20260506034446 53 238 1.0 2.0 0.00 0.00 0.00 90 1015.0
20260506032946 53 238 1.0 2.0 0.00 0.00 0.00 90 1015.0
20260506031446 53 238 1.0 3.0 0.00 0.00 0.00 90 1015.0
20260506025946 53 238 1.0 2.0 0.00 0.00 0.00 91 1015.0
20260506024446 53 235 1.0 2.0 0.00 0.00 0.00 91 1015.0
20260506022946 53 243 1.0 1.0 0.00 0.00 0.00 91 1015.0
20260506021446 53 243 1.0 2.0 0.00 0.00 0.00 91 1015.0
20260506015946 53 238 1.0 1.0 0.00 0.00 0.00 91 1015.0
20260506014446 53 238 1.0 2.0 0.00 0.00 0.00 91 1015.0
20260506012946 53 265 1.0 2.0 0.00 0.00 0.00 91 1016.0
20260506011446 53 239 1.0 1.0 0.00 0.00 0.00 93 1016.0
20260506005946 53 239 1.0 2.0 0.00 0.00 0.00 93 1016.0
20260506004446 53 239 1.0 4.0 0.00 0.00 0.00 93 1016.0
20260506002946 53 240 1.0 2.0 0.00 0.00 0.00 92 1016.0
20260506001446 53 242 1.0 3.0 0.00 0.00 0.00 92 1016.0
20260505235946 53 249 1.0 2.0 0.00 0.00 0.00 92 1016.0
20260505234446 54 249 2.0 4.0 0.00 0.00 0.00 91 1016.0
20260505232946 54 244 1.0 2.0 0.00 0.00 0.00 91 1016.0
20260505231446 54 244 2.0 3.0 0.00 0.00 0.00 92 1016.0
20260505225945 55 248 1.0 2.0 0.00 0.00 0.00 92 1016.0
20260505224446 55 250 1.0 2.0 0.00 0.00 0.00 90 1016.0
20260505222946 55 243 1.0 2.0 0.00 0.00 0.00 89 1016.0
20260505221445 55 250 1.0 2.0 0.00 0.00 0.00 89 1016.0
20260505215946 55 250 1.0 3.0 0.00 0.00 0.00 88 1016.0
20260505214446 55 227 1.0 1.0 0.00 0.00 0.00 87 1016.0
20260505212946 55 227 1.0 1.0 0.00 0.00 0.00 87 1016.0
20260505211446 55 227 1.0 1.0 0.00 0.00 0.00 86 1016.0
20260505205946 55 227 1.0 1.0 0.00 0.00 0.00 88 1016.0